Location: Omaha
(41.2590°N, 95.9380°W)
Time: 10:00:07
(UTC-05:00)

Vanguard 3 - Pass Details

Date: 27 June 2018
Orbit: 508 x 3264 km, 33.3° (Epoch: 23 September)

Event Time Altitude Azimuth Distance (km) Brightness Sun altitude
Rises 01:43:39 0° 212° (SSW) 2,588 - -25.3°
Reaches altitude 10° 01:46:38 10° 183° (S) 1,767 - -25.3°
Maximum altitude 01:48:36 13° 152° (SSE) 1,649 - -25.2°
Drops below altitude 10° 01:50:47 10° 121° (ESE) 2,017 - -25.2°
Exits shadow 01:52:58 - 104° (ESE) 2,690 9.8 -25.1°
Sets 01:54:41 0° 96° (E) 3,307 10.3 -25.1°
